GW2563 Weather Reports


Display with metric or nautical units.
time (UTC)temp
F
wind
direction
speed
MPH
gust
MPH
rain 1hr
in
rain 24hr
in
rain mn
in
humidity
%
barometer
mb
20260505083521 44 79 2.0 5.0 0.00 0.08 0.00 98 1018.0
20260505082522 44 113 0.0 3.0 0.00 0.08 0.00 98 1018.0
20260505081519 44 113 1.0 3.0 0.00 0.08 0.00 98 1018.1
20260505080543 44 0.0 3.0 0.00 0.08 0.00 98 1018.5
20260505075520 44 90 0.0 3.0 0.00 0.08 0.00 98 1018.7
20260505074519 44 0.0 3.0 0.00 0.08 0.00 98 1018.4
20260505073520 44 158 0.0 3.0 0.00 0.08 0.00 98 1017.5
20260505072520 44 136 0.0 3.0 0.00 0.08 0.00 98 1017.5
20260505071520 44 147 0.0 3.0 0.00 0.08 0.00 98 1017.7
20260505070522 45 150 1.0 3.0 0.00 0.08 0.00 99 1018.3
20260505065542 45 0.0 0.0 0.00 0.08 0.00 99 1018.3
20260505064607 45 0.0 0.0 0.01 0.08 0.00 99 1018.7
20260505063520 45 0.0 0.0 0.01 0.08 0.00 99 1018.7
20260505062521 45 0.0 0.0 0.01 0.08 0.00 99 1019.0
20260505061518 45 0.0 0.0 0.02 0.08 0.00 99 1019.3
20260505060521 45 0.0 0.0 0.02 0.08 0.00 99 1019.8
20260505055522 46 0.0 2.0 0.03 0.08 0.08 99 1019.5
20260505054521 46 0.0 5.0 0.02 0.07 0.07 98 1019.4
20260505053520 46 0.0 7.0 0.02 0.07 0.07 97 1019.0
20260505052521 46 0.0 7.0 0.03 0.07 0.07 97 1019.8
20260505051521 46 0.0 7.0 0.03 0.06 0.06 97 1019.6
20260505050520 46 0.0 7.0 0.04 0.06 0.06 97 1019.5
20260505041520 48 269 2.0 6.0 0.03 0.03 0.03 89 1019.1
20260505040519 50 288 3.0 6.0 0.02 0.02 0.02 82 1018.8
20260505035543 51 285 2.0 5.0 0.00 0.00 0.00 69 1018.9
20260505034520 51 279 2.0 4.0 0.00 0.00 0.00 69 1018.2
20260505033543 51 359 2.0 4.0 0.00 0.00 0.00 67 1017.9
20260505032519 51 65 2.0 4.0 0.00 0.00 0.00 66 1017.9
20260505031520 51 54 2.0 4.0 0.00 0.00 0.00 66 1017.6
20260505030520 51 70 2.0 5.0 0.00 0.00 0.00 64 1017.1
20260505025519 51 62 2.0 7.0 0.00 0.00 0.00 64 1016.8
20260505024520 51 68 2.0 7.0 0.00 0.00 0.00 64 1016.5
20260505023519 51 55 2.0 8.0 0.00 0.00 0.00 65 1015.9
20260505022521 51 69 2.0 11.0 0.00 0.00 0.00 65 1015.6
20260505021520 51 54 2.0 11.0 0.00 0.00 0.00 66 1015.5
20260505020520 51 78 2.0 14.0 0.00 0.00 0.00 66 1015.2
20260505015519 52 64 2.0 14.0 0.00 0.00 0.00 65 1015.2
20260505014520 53 62 3.0 14.0 0.00 0.00 0.00 61 1015.0
20260505013521 54 61 3.0 14.0 0.00 0.00 0.00 56 1015.1
20260505012520 54 26 5.0 14.0 0.00 0.00 0.00 55 1014.8
20260505011519 55 329 7.0 14.0 0.00 0.00 0.00 53 1015.1
20260505010522 56 300 7.0 14.0 0.00 0.00 0.00 49 1015.1
20260505005543 57 35 6.0 11.0 0.00 0.00 0.00 47 1014.8
20260505004521 57 352 4.0 11.0 0.00 0.00 0.00 46 1014.8
20260505003521 58 332 6.0 11.0 0.00 0.00 0.00 45 1014.5
20260505002542 58 333 6.0 11.0 0.00 0.00 0.00 44 1014.2
20260505001519 59 330 6.0 14.0 0.00 0.00 0.00 41 1014.5
20260505000545 60 8 7.0 14.0 0.00 0.00 0.00 37 1014.1
20260504235524 61 30 6.0 14.0 0.00 0.00 0.00 37 1014.5
20260504234543 61 55 5.0 14.0 0.00 0.00 0.00 37 1014.5
20260504233519 61 339 6.0 14.0 0.00 0.00 0.00 37 1014.2
20260504232542 61 359 6.0 16.0 0.00 0.00 0.00 37 1013.9
20260504231519 62 30 8.0 16.0 0.00 0.00 0.00 36 1013.8
20260504230519 62 36 6.0 16.0 0.00 0.00 0.00 36 1013.8
20260504225521 63 36 7.0 16.0 0.00 0.00 0.00 35 1013.5
20260504224521 63 41 7.0 16.0 0.00 0.00 0.00 35 1013.6
20260504223521 63 360 8.0 16.0 0.00 0.00 0.00 34 1014.2
20260504222521 63 359 9.0 16.0 0.00 0.00 0.00 34 1013.9
20260504221521 65 333 7.0 13.0 0.00 0.00 0.00 31 1013.9
20260504220522 67 328 5.0 13.0 0.00 0.00 0.00 26 1014.0
20260504215607 68 23 7.0 13.0 0.00 0.00 0.00 26 1014.3
20260504214544 69 42 4.0 11.0 0.00 0.00 0.00 25 1014.6
20260504213543 68 26 6.0 11.0 0.00 0.00 0.00 25 1014.6
20260504212519 70 6 7.0 11.0 0.00 0.00 0.00 25 1015.1
20260504211519 71 338 5.0 11.0 0.00 0.00 0.00 25 1015.3
20260504210519 71 304 4.0 11.0 0.00 0.00 0.00 24 1015.4
20260504205521 70 354 5.0 11.0 0.00 0.00 0.00 26 1015.5
20260504204521 70 354 5.0 10.0 0.00 0.00 0.00 24 1015.4
20260504203518 71 313 5.0 12.0 0.00 0.00 0.00 24 1016.1
20260504202521 71 297 4.0 12.0 0.00 0.00 0.00 24 1016.0
20260504201521 72 19 5.0 12.0 0.00 0.00 0.00 23 1016.2
20260504200545 71 34 3.0 12.0 0.00 0.00 0.00 24 1016.3
20260504195521 71 338 6.0 12.0 0.00 0.00 0.00 24 1016.6
20260504194520 70 341 3.0 12.0 0.00 0.00 0.00 25 1016.6
20260504193543 69 39 3.0 14.0 0.00 0.00 0.00 25 1016.7
20260504192519 67 76 7.0 14.0 0.00 0.00 0.00 26 1016.2
20260504191520 67 331 5.0 14.0 0.00 0.00 0.00 26 1016.0
20260504190545 66 267 6.0 14.0 0.00 0.00 0.00 25 1015.8
20260504185521 66 260 7.0 14.0 0.00 0.00 0.00 24 1016.2
20260504184521 67 280 4.0 14.0 0.00 0.00 0.00 23 1016.1
20260504183520 68 353 5.0 7.0 0.00 0.00 0.00 25 1016.9
20260504182545 68 257 3.0 7.0 0.00 0.00 0.00 25 1016.9
20260504181520 69 281 4.0 7.0 0.00 0.00 0.00 25 1017.0
20260504180520 70 298 3.0 8.0 0.00 0.00 0.00 25 1017.4
20260504175521 71 101 5.0 8.0 0.00 0.00 0.00 23 1017.8
20260504174545 73 283 3.0 10.0 0.00 0.00 0.00 23 1018.5
20260504173520 72 279 4.0 10.0 0.00 0.00 0.00 25 1018.6
20260504172520 71 239 4.0 12.0 0.00 0.00 0.00 24 1018.4
20260504171542 70 251 4.0 12.0 0.00 0.00 0.00 25 1018.6
20260504170519 70 293 4.0 12.0 0.00 0.00 0.00 25 1018.7
20260504150522 64 283 6.0 8.0 0.00 0.00 0.00 30 1018.5
20260504140521 55 238 2.0 6.0 0.00 0.00 0.00 40 1017.3
20260504130651 50 209 3.0 6.0 0.00 0.00 0.00 42 1016.5
20260504110521 47 204 2.0 5.0 0.00 0.00 0.00 50 1016.9
20260504100544 47 221 3.0 5.0 0.00 0.00 0.00 50 1017.7